Regional Weather Roundup
Issued by NWS

Home | Current Version | Previous Version | Text Only | Print | Product List | Glossary On
Versions: 1 2 3 4 5 6 7 8 9 10 11 12 13 14 15 16 17 18 19 20 21 22 23 24 25 26 27 28 29 30 31 32 33 34 35 36 37 38 39 40 41 42 43 44 45 46 47 48 49 50
000
ASUS45 KABQ 290510
RWRNM
NEW MEXICO REGIONAL WEATHER ROUNDUP
NATIONAL WEATHER SERVICE ALBUQUERQUE NM
1100 PM MDT TUE JUL 28 2015

NOTE: "FAIR" MEANS FEW OR NO CLOUDS BELOW 12,000 FEET AGL WITH NO
       SIGNIFICANT WEATHER OR OBSTRUCTIONS TO VISION.

      THIS PRODUCT IS RELEASED AS TWO VERSIONS.  ONE VERSION NEAR
      THE TOP OF THE HOUR CONTAINING PRELIMINARY DATA FROM ALBUQUERQUE
      AND OTHER STATIONS.  A FINAL VERSION WITH ADDITIONAL DATA IS
      ISSUED ABOUT 10 MINUTES AFTER THE HOUR.

NMZ501-503-504-510>518-290600-
NORTHWEST PLATEAU/NORTHCENTRAL MOUNTAINS

CITY           SKY/WX    TMP DP  RH WIND       PRES   REMARKS
FARMINGTON     CLEAR     75  20  12 CALM      30.15R
LOS ALAMOS     CLOUDY    66  52  61 SW13      30.37R
SANTA FE       CLOUDY    71  49  45 E10       30.29R
TAOS           MOCLDY    64  43  45 E13       30.35R
ANGEL FIRE     FAIR      51  49  92 NW5       30.47S

$$
NMZ402-403-502-505>509-290600-
WESTCENTRAL MOUNTAINS/SOUTHWEST MOUNTAINS

CITY           SKY/WX    TMP DP  RH WIND       PRES   REMARKS
GALLUP         CLOUDY    73  45  36 S5        30.27R
GRANTS         CLOUDY    67  55  65 S7        30.29S
SILVER CITY      N/A     73  54  49 CALM      30.23R

$$
NMZ407-409-411-412-290600-
SOUTHERN DESERTS

CITY           SKY/WX    TMP DP  RH WIND       PRES   REMARKS
LORDSBURG      CLOUDY    81  54  39 W8        30.13R
DEMING         MOCLDY    74  61  63 NE10      30.13S
LAS CRUCES     LGT RAIN  72  59  64 N9        30.13F
HOLLOMAN AFB   MOCLDY    73  64  73 E3        30.13S
ALAMOGORDO     CLOUDY    73  63  68 NE3       30.15S
T OR C         LGT RAIN  72  62  71 NE8       30.17F

$$
NMZ519>523-290600-
CENTRAL VALLEYS/CENTRAL HIGHLANDS

CITY           SKY/WX    TMP DP  RH WIND       PRES   REMARKS
ALBUQUERQUE    CLOUDY    75  54  47 E20       30.22R
DOUBLE EAGLE   CLOUDY    74  54  49 SE16      30.27R
MORIARTY ARPT    N/A     65  54  68 CALM      30.35R
CLINES CORNERS CLOUDY    60  54  80 NE10      30.36R
BELEN          CLOUDY    76  53  44 SE13      30.23R
SOCORRO        MOCLDY    73  56  54 CALM      30.19R

$$
NMZ524>526-539-540-290600-
SOUTHCENTRAL MOUNTAINS

CITY           SKY/WX    TMP DP  RH WIND       PRES   REMARKS
RUIDOSO          N/A    N/A N/A N/A MISG        N/A

$$
NMZ527>531-290600-
NORTHEAST HIGHLANDS/NORTHEAST PLAINS

CITY           SKY/WX    TMP DP  RH WIND       PRES   REMARKS
LAS VEGAS      MOCLDY    59  55  87 N5        30.37S
RATON          MOCLDY    61  53  75 W5        30.32S
CLAYTON        LGT RAIN  67  60  78 SW5       30.25R

$$
NMZ532>537-290600-
EASTCENTRAL PLAINS

CITY           SKY/WX    TMP DP  RH WIND       PRES   REMARKS
TUCUMCARI      CLOUDY    67  63  87 NE12      30.14F
CANNON AFB     CLOUDY    67  64  89 NW8       30.18R
CLOVIS AIRPORT CLOUDY    66  63  88 N13       30.17F

$$
NMZ028-029-538-290600-
SOUTHEAST PLAINS

CITY           SKY/WX    TMP DP  RH WIND       PRES   REMARKS
ROSWELL        CLOUDY    74  63  68 NE12      30.11F
ARTESIA        CLOUDY    75  64  69 NE15      30.11R
CARLSBAD       CLOUDY    77  65  66 N13       30.06R
HOBBS          PTCLDY    75  61  60 N17       30.12R


$$


USA.gov is the U.S. government's official web portal to all federal, state and local government web resources and services.